TimeMST,TemperatureF,Dew PointF,Humidity,Sea Level PressureIn,VisibilityMPH,Wind Direction,Wind SpeedMPH,Gust SpeedMPH,PrecipitationIn,Events,Conditions,WindDirDegrees,DateUTC
12:51 AM,91.0,55.0,29,29.75,10.0,SE,11.5,23.0,N/A,,Overcast,130,2013-07-03 07:51:00
1:51 AM,90.0,55.0,30,29.75,10.0,ESE,15.0,-,N/A,,Mostly Cloudy,120,2013-07-03 08:51:00
2:51 AM,90.0,53.1,28,29.75,10.0,East,10.4,-,N/A,,Mostly Cloudy,90,2013-07-03 09:51:00
3:51 AM,89.1,54.0,30,29.75,10.0,SE,9.2,-,N/A,,Mostly Cloudy,130,2013-07-03 10:51:00
4:51 AM,88.0,54.0,31,29.74,10.0,ESE,6.9,-,N/A,,Partly Cloudy,120,2013-07-03 11:51:00
5:51 AM,87.1,55.0,33,29.75,10.0,ESE,11.5,-,N/A,,Scattered Clouds,120,2013-07-03 12:51:00
6:51 AM,89.1,55.0,31,29.78,10.0,ESE,9.2,-,N/A,,Partly Cloudy,120,2013-07-03 13:51:00
7:51 AM,90.0,55.0,30,29.80,10.0,East,10.4,-,N/A,,Scattered Clouds,100,2013-07-03 14:51:00
8:51 AM,93.9,54.0,26,29.78,10.0,SE,10.4,-,N/A,,Partly Cloudy,130,2013-07-03 15:51:00
9:51 AM,98.1,54.0,23,29.77,10.0,SSE,11.5,-,N/A,,Partly Cloudy,150,2013-07-03 16:51:00
10:51 AM,100.0,53.1,21,29.76,10.0,SSE,10.4,-,N/A,,Scattered Clouds,160,2013-07-03 17:51:00
11:51 AM,102.9,53.1,19,29.74,10.0,ESE,9.2,-,N/A,,Scattered Clouds,120,2013-07-03 18:51:00
12:51 PM,106.0,52.0,17,29.71,10.0,SSE,9.2,-,N/A,,Scattered Clouds,150,2013-07-03 19:51:00
1:51 PM,106.0,51.1,16,29.68,10.0,Variable,3.5,-,N/A,,Scattered Clouds,0,2013-07-03 20:51:00
2:51 PM,108.0,50.0,15,29.64,10.0,Variable,4.6,-,N/A,,Scattered Clouds,0,2013-07-03 21:51:00
3:51 PM,109.9,46.9,12,29.60,10.0,NW,10.4,-,N/A,,Scattered Clouds,310,2013-07-03 22:51:00
4:51 PM,111.0,46.0,11,29.57,10.0,WNW,19.6,25.3,N/A,,Mostly Cloudy,300,2013-07-03 23:51:00
5:51 PM,109.0,48.0,13,29.56,10.0,West,12.7,23.0,N/A,,Overcast,280,2013-07-04 00:51:00
6:51 PM,108.0,46.9,13,29.55,10.0,West,12.7,-,N/A,,Overcast,260,2013-07-04 01:51:00
7:51 PM,107.1,46.9,13,29.57,10.0,WSW,5.8,-,N/A,,Mostly Cloudy,250,2013-07-04 02:51:00
8:51 PM,105.1,48.0,15,29.57,10.0,West,6.9,-,N/A,,Mostly Cloudy,260,2013-07-04 03:51:00
9:51 PM,104.0,48.0,15,29.59,10.0,NW,8.1,-,N/A,,Scattered Clouds,320,2013-07-04 04:51:00
10:51 PM,102.0,50.0,17,29.59,10.0,West,9.2,-,N/A,,Partly Cloudy,260,2013-07-04 05:51:00
11:51 PM,100.9,50.0,18,29.59,10.0,West,10.4,-,N/A,,Partly Cloudy,280,2013-07-04 06:51:00